Regional Weather Roundup
Issued by NWS Newport/Morehead, NC

Current Version | Previous Version | Graphics & Text | Print | Product List | Glossary Off
Versions: 1 2 3 4 5 6 7 8 9 10 11 12 13 14 15 16 17 18 19 20 21 22 23 24 25 26 27 28 29 30 31 32 33 34 35 36 37 38 39 40 41 42 43 44 45 46 47 48 49 50

000
ASUS42 KMHX 050812
RWRMHX
WEATHER ROUNDUP FOR EASTERN NORTH CAROLINA
NATIONAL WEATHER SERVICE NEWPORT/MOREHEAD CITY NC
400 AM EDT TUE MAY 05 2015

NOTE: "FAIR" INDICATES FEW OR NO CLOUDS BELOW 12,000 FEET
WITH NO SIGNIFICANT WEATHER AND/OR OBSTRUCTIONS TO VISIBILITY

NCZ015>017-031-032-045>047-102-103-050900-
NORTH COAST

CITY           SKY/WX    TMP DP  RH WIND       PRES   REMARKS
EDENTON        CLEAR     61  55  81 SW5       30.33S
ELIZABETH CITY CLEAR     59  53  80 SW6       30.32S
KITTY HAWK     SUNNY     62  54  74 SW6       30.32S
MANTEO         CLEAR     62  54  75 SW5       30.33F

$$

NCZ045>047-081-094-103-104-050900-
CENTRAL COAST

CITY           SKY/WX    TMP DP  RH WIND       PRES   REMARKS
FRISCO         CLEAR     61  57  87 SW6       30.34S
SWANQUARTER      N/A     64 N/A N/A SW6       30.30S

$$

NCZ095-097-098-100-101-050900-
SOUTHERN COAST

CITY           SKY/WX    TMP DP  RH WIND       PRES   REMARKS
BEAUFORT       CLEAR     64  57  78 SE5       30.33F
CEDAR ISLAND     N/A     61 N/A N/A S5        30.36S
JACKSONVILLE   CLEAR     54  52  93 CALM      30.33S
PINEY ISLAND   SUNNY    N/A N/A N/A SW3       30.33S
WILMINGTON     CLEAR     54  52  93 NE3       30.33R


$$

NCZ011>013-027>030-043-044-078>080-089-090>093-098-050900-
COASTAL PLAIN

CITY           SKY/WX    TMP DP  RH WIND       PRES   REMARKS
AHOSKIE        FAIR      56  50  82 CALM      30.32S
CLINTON        CLEAR     55  54  97 CALM      30.33F
ELIZABETHTOWN  CLEAR     56  55  97 CALM      30.33R
GOLDSBORO      NOT AVBL
GREENVILLE     CLEAR     59  54  82 CALM      30.33S
HAVELOCK       CLEAR     53  50  89 CALM        N/A
KENANSVILLE    CLEAR     51  49  95 CALM      30.34F
KINSTON        CLEAR     55  53  95 CALM      30.33F
NEW BERN       CLEAR     53  50  89 CALM      30.34F
RICHLANDS      CLEAR     52  46  82 CALM      30.34S
ROCKY MOUNT    CLEAR     58  52  80 S3        30.32S
WASHINGTON     CLEAR     57  54  88 CALM      30.33F
WHITEVILLE     CLEAR     54  52  94 CALM      30.32R

$$

AMZ130-135-150-152-154-156-158-170-250-252-270-ANZ085-086-088-633-658-670-050900-
MARINE OBSERVATIONS

STATION/POSITION TIME  TEMP    WIND        PRES    WAVE   SWELL
                       AIR SEA DIR/SP/G            HT/PER HT/PER
                 (UTC) (F)     (DEG/KT/KT) (MB)    (FT/S) (FT/S)
CHESAPEAKE LIGHT 0700   64     220/ 19/ 20 1026.3
64 E VA BEACH    0750   61 60  230/ 12/ 14 1026.2    3/11   3/11
DUCK             0712   65 53  220/  8/ 11 1025.8
2 E DUCK         0711      56                N/A     2/ 9   2/12
OREGON INLET     0712   66 67  210/  7/  8 1027.0
13E OREGON INLT  0800      60                N/A     2/12   2/12
HATTERAS CG      0712   67 64  190/  3/  6 1026.8
DIAMOND BUOY     0750   73 77  200/ 12/ 16 1027.2    3/10   3/10
CAPE LOOKOUT     0800   66     170/  2/  4 1026.9
BEAUFORT LAB     0712   66 67  160/  4/  5 1026.2
27 SE WRIGHTSVLE 0700   69 71  160/ 10/ 12   N/A
5 SE WRIGHTSVLE  0708   69 69  180/  4/  6 1026.7
225 S CAPE HAT   0750   68 70  100/ 16/ 17 1026.2    5/11   3/11
41 SE CHARLESTON 0750   72 73  100/ 10/ 12 1025.2    4/ 6   3/ 6

$$



USA.gov is the U.S. government's official web portal to all federal, state and local government web resources and services.